| time (UTC) | temp F | wind direction | speed MPH | gust MPH | rain 1hr in | rain 24hr in | rain mn in | humidity % | barometer mb |
| 20260903183055 | 86 | 249 | 5.0 | 10.0 | 0.00 | 0.00 | 0.00 | 78 | 1015.2 |
| 20260903181553 | 86 | 267 | 3.0 | 11.0 | 0.00 | 0.00 | 0.00 | 78 | 1015.8 |
| 20260903180116 | 85 | 267 | 5.0 | 11.0 | 0.00 | 0.00 | 0.00 | 77 | 1015.7 |
| 20260903174554 | 86 | 266 | 6.0 | 12.0 | 0.00 | 0.00 | 0.00 | 77 | 1015.9 |
| 20260903173052 | 86 | 252 | 4.0 | 16.0 | 0.00 | 0.00 | 0.00 | 76 | 1016.0 |
| 20260903171554 | 86 | 266 | 8.0 | 14.0 | 0.00 | 0.00 | 0.00 | 77 | 1016.2 |
| 20260903170059 | 85 | 268 | 6.0 | 14.0 | 0.00 | 0.00 | 0.00 | 77 | 1016.2 |
| 20260903164601 | 85 | 254 | 7.0 | 17.0 | 0.00 | 0.00 | 0.00 | 76 | 1016.4 |
| 20260903163053 | 86 | 242 | 5.0 | 11.0 | 0.00 | 0.00 | 0.00 | 76 | 1016.6 |
| 20260903161551 | 85 | 261 | 8.0 | 16.0 | 0.00 | 0.00 | 0.00 | 76 | 1016.5 |
| 20260903160107 | 85 | 271 | 8.0 | 16.0 | 0.00 | 0.00 | 0.00 | 75 | 1016.4 |
| 20260903154554 | 85 | 208 | 8.0 | 18.0 | 0.00 | 0.00 | 0.00 | 77 | 1016.4 |
| 20260903153054 | 84 | 202 | 9.0 | 18.0 | 0.00 | 0.00 | 0.00 | 78 | 1016.4 |
| 20260903151556 | 84 | 209 | 5.0 | 14.0 | 0.00 | 0.00 | 0.00 | 81 | 1016.4 |
| 20260903150058 | 82 | 221 | 6.0 | 12.0 | 0.00 | 0.00 | 0.00 | 83 | 1016.5 |
| 20260903144558 | 81 | 198 | 5.0 | 11.0 | 0.00 | 0.00 | 0.00 | 86 | 1016.5 |
| 20260903143057 | 79 | 211 | 8.0 | 12.0 | 0.00 | 0.00 | 0.00 | 87 | 1016.5 |
| 20260903141557 | 78 | 191 | 5.0 | 12.0 | 0.00 | 0.00 | 0.00 | 88 | 1017.0 |
| 20260903140057 | 78 | 213 | 7.0 | 15.0 | 0.00 | 0.00 | 0.00 | 88 | 1016.6 |
| 20260903134553 | 78 | 216 | 5.0 | 14.0 | 0.00 | 0.00 | 0.00 | 87 | 1016.5 |
| 20260903133051 | 78 | 188 | 4.0 | 11.0 | 0.00 | 0.00 | 0.00 | 88 | 1017.0 |
| 20260903131557 | 78 | 194 | 3.0 | 9.0 | 0.00 | 0.00 | 0.00 | 89 | 1017.5 |
| 20260903130116 | 77 | 147 | 4.0 | 10.0 | 0.00 | 0.00 | 0.00 | 91 | 1017.7 |
| 20260903124601 | 77 | 161 | 1.0 | 9.0 | 0.00 | 0.01 | 0.00 | 94 | 1018.1 |
| 20260903123101 | 76 | 123 | 2.0 | 6.0 | 0.00 | 0.01 | 0.00 | 95 | 1018.7 |
| 20260903121557 | 75 | 122 | 2.0 | 6.0 | 0.00 | 0.01 | 0.00 | 96 | 1018.7 |
| 20260903120058 | 74 | 122 | 3.0 | 6.0 | 0.00 | 0.01 | 0.00 | 96 | 1018.6 |
| 20260903114554 | 74 | 101 | 3.0 | 9.0 | 0.00 | 0.01 | 0.00 | 96 | 1018.6 |
| 20260903113059 | 75 | 73 | 5.0 | 10.0 | 0.00 | 0.01 | 0.00 | 96 | 1018.6 |
| 20260903111605 | 74 | 60 | 3.0 | 8.0 | 0.00 | 0.01 | 0.00 | 96 | 1018.4 |
| 20260903110112 | 74 | 84 | 3.0 | 8.0 | 0.00 | 0.01 | 0.00 | 96 | 1018.3 |
| 20260903104556 | 74 | 67 | 4.0 | 9.0 | 0.00 | 0.01 | 0.00 | 96 | 1018.1 |
| 20260903103056 | 75 | 18 | 1.0 | 3.0 | 0.00 | 0.01 | 0.00 | 97 | 1018.1 |
| 20260903101604 | 75 | 107 | 1.0 | 2.0 | 0.00 | 0.01 | 0.00 | 97 | 1018.3 |
| 20260903100053 | 74 | 0 | 0.0 | 0.0 | 0.00 | 0.01 | 0.00 | 96 | 1017.7 |
| 20260903094559 | 75 | 0 | 0.0 | 1.0 | 0.00 | 0.01 | 0.00 | 97 | 1017.5 |
| 20260903093056 | 75 | 0 | 0.0 | 2.0 | 0.00 | 0.01 | 0.00 | 97 | 1017.5 |
| 20260903091553 | 75 | 0 | 0.0 | 3.0 | 0.00 | 0.01 | 0.00 | 97 | 1017.5 |
| 20260903090101 | 75 | 107 | 2.0 | 6.0 | 0.00 | 0.01 | 0.00 | 96 | 1017.4 |
| 20260903084557 | 75 | 98 | 1.0 | 4.0 | 0.00 | 0.01 | 0.00 | 96 | 1017.4 |
| 20260903083059 | 75 | 49 | 1.0 | 6.0 | 0.00 | 0.01 | 0.00 | 96 | 1017.8 |
| 20260903081553 | 75 | 59 | 4.0 | 8.0 | 0.00 | 0.01 | 0.00 | 96 | 1017.7 |
| 20260903080104 | 75 | 42 | 4.0 | 12.0 | 0.00 | 0.00 | 0.00 | 97 | 1018.1 |
| 20260903074607 | 75 | 23 | 4.0 | 8.0 | 0.00 | 0.00 | 0.00 | 97 | 1018.3 |
| 20260903073055 | 75 | 57 | 2.0 | 4.0 | 0.00 | 0.00 | 0.00 | 97 | 1017.6 |
| 20260903071556 | 74 | 0 | 0.0 | 1.0 | 0.00 | 0.00 | 0.00 | 96 | 1017.2 |
| 20260903070052 | 75 | 137 | 0.0 | 2.0 | 0.00 | 0.00 | 0.00 | 96 | 1016.9 |
| 20260903064601 | 74 | 137 | 0.0 | 3.0 | 0.00 | 0.00 | 0.00 | 96 | 1016.7 |
| 20260903063054 | 74 | 68 | 1.0 | 4.0 | 0.00 | 0.00 | 0.00 | 96 | 1016.8 |
| 20260903061559 | 75 | 127 | 3.0 | 5.0 | 0.00 | 0.00 | 0.00 | 96 | 1016.7 |
| 20260903060100 | 75 | 120 | 1.0 | 2.0 | 0.00 | 0.00 | 0.00 | 96 | 1017.2 |
| 20260903054557 | 74 | 120 | 1.0 | 3.0 | 0.00 | 0.00 | 0.00 | 96 | 1017.3 |
| 20260903053108 | 74 | 0 | 0.0 | 2.0 | 0.00 | 0.00 | 0.00 | 96 | 1017.8 |
| 20260903051603 | 74 | 0 | 0.0 | 3.0 | 0.00 | 0.00 | 0.00 | 96 | 1018.0 |
| 20260903050104 | 74 | 0 | 0.0 | 1.0 | 0.00 | 0.00 | 0.00 | 96 | 1018.3 |
| 20260903044558 | 75 | 118 | 3.0 | 7.0 | 0.00 | 0.48 | 0.00 | 96 | 1017.7 |
| 20260903043051 | 75 | 87 | 2.0 | 5.0 | 0.00 | 0.48 | 0.00 | 96 | 1017.9 |
| 20260903041604 | 75 | 76 | 2.0 | 7.0 | 0.00 | 0.48 | 0.00 | 96 | 1018.3 |
| 20260903040059 | 75 | 113 | 2.0 | 4.0 | 0.00 | 0.48 | 0.00 | 96 | 1018.3 |
| 20260903034550 | 75 | 113 | 2.0 | 4.0 | 0.00 | 0.57 | 0.48 | 96 | 1018.4 |
| 20260903033112 | 75 | 113 | 2.0 | 4.0 | 0.00 | 0.57 | 0.48 | 96 | 1017.9 |
| 20260903031555 | 75 | 113 | 0.0 | 3.0 | 0.00 | 0.57 | 0.48 | 96 | 1018.2 |
| 20260903030054 | 75 | 113 | 3.0 | 6.0 | 0.00 | 0.57 | 0.48 | 95 | 1018.3 |
| 20260903024606 | 75 | 113 | 0.0 | 3.0 | 0.00 | 0.57 | 0.48 | 95 | 1018.4 |
| 20260903023052 | 75 | 113 | 1.0 | 4.0 | 0.00 | 0.57 | 0.48 | 95 | 1018.4 |
| 20260903021606 | 75 | 113 | 3.0 | 7.0 | 0.00 | 0.57 | 0.48 | 95 | 1018.1 |
| 20260903020056 | 75 | 109 | 4.0 | 8.0 | 0.00 | 0.57 | 0.48 | 95 | 1018.0 |
| 20260903014554 | 75 | 101 | 3.0 | 7.0 | 0.00 | 0.57 | 0.48 | 95 | 1018.2 |
| 20260903013100 | 75 | 128 | 4.0 | 9.0 | 0.00 | 0.57 | 0.48 | 94 | 1018.3 |
| 20260903011559 | 75 | 122 | 4.0 | 8.0 | 0.00 | 0.57 | 0.48 | 94 | 1018.4 |
| 20260903010110 | 75 | 103 | 5.0 | 8.0 | 0.00 | 0.57 | 0.48 | 94 | 1018.4 |
| 20260903004558 | 75 | 108 | 4.0 | 9.0 | 0.00 | 0.57 | 0.48 | 94 | 1018.3 |
| 20260903003050 | 75 | 106 | 4.0 | 8.0 | 0.00 | 0.57 | 0.48 | 94 | 1018.1 |
| 20260903001603 | 75 | 109 | 3.0 | 9.0 | 0.00 | 0.57 | 0.48 | 94 | 1018.1 |
| 20260903000104 | 75 | 98 | 5.0 | 9.0 | 0.00 | 0.57 | 0.48 | 94 | 1018.0 |
| 20260902234552 | 75 | 128 | 6.0 | 9.0 | 0.00 | 0.57 | 0.48 | 93 | 1018.0 |
| 20260902233047 | 75 | 110 | 3.0 | 7.0 | 0.00 | 0.57 | 0.48 | 93 | 1018.2 |
| 20260902231555 | 75 | 110 | 4.0 | 10.0 | 0.00 | 0.57 | 0.48 | 93 | 1018.0 |
| 20260902230053 | 76 | 108 | 4.0 | 8.0 | 0.00 | 0.57 | 0.48 | 93 | 1018.0 |
| 20260902224552 | 75 | 78 | 3.0 | 8.0 | 0.00 | 0.57 | 0.48 | 93 | 1018.2 |
| 20260902223052 | 75 | 107 | 5.0 | 10.0 | 0.00 | 0.57 | 0.48 | 93 | 1017.9 |
| 20260902221616 | 75 | 111 | 6.0 | 9.0 | 0.00 | 0.57 | 0.48 | 92 | 1018.4 |
| 20260902220059 | 75 | 58 | 6.0 | 13.0 | 0.00 | 0.57 | 0.48 | 92 | 1018.6 |
| 20260902214556 | 75 | 71 | 5.0 | 11.0 | 0.00 | 0.57 | 0.48 | 92 | 1018.6 |
| 20260902213101 | 75 | 87 | 5.0 | 11.0 | 0.00 | 0.57 | 0.48 | 92 | 1018.6 |
| 20260902211611 | 76 | 90 | 3.0 | 9.0 | 0.00 | 0.57 | 0.48 | 92 | 1018.9 |
| 20260902204554 | 75 | 185 | 5.0 | 13.0 | 0.00 | 0.57 | 0.48 | 93 | 1017.6 |
| 20260902203052 | 75 | 218 | 4.0 | 13.0 | 0.00 | 0.57 | 0.48 | 92 | 1016.6 |
| 20260902201629 | 75 | 153 | 10.0 | 19.0 | 0.00 | 0.57 | 0.48 | 92 | 1016.3 |
| 20260902200105 | 75 | 148 | 8.0 | 14.0 | 0.00 | 0.57 | 0.48 | 90 | 1017.2 |
| 20260902194551 | 76 | 112 | 10.0 | 15.0 | 0.00 | 0.57 | 0.48 | 90 | 1018.2 |
| 20260902193050 | 76 | 62 | 2.0 | 5.0 | 0.00 | 0.57 | 0.48 | 88 | 1020.1 |
| 20260902191556 | 76 | 41 | 5.0 | 11.0 | 0.00 | 0.57 | 0.48 | 87 | 1020.5 |
| 20260902190056 | 77 | 93 | 6.0 | 12.0 | 0.00 | 0.57 | 0.48 | 86 | 1019.8 |
| 20260902184608 | 77 | 64 | 8.0 | 13.0 | 0.00 | 0.57 | 0.48 | 86 | 1020.0 |